STARLINK-36650

Last updated on Sun Mar 15 2026 00:02:07 GMT+0000 (Coordinated Universal Time)

1 67836U 26033R 26073.58335648 -.01941887 00000+0 -22851-1 0 9992 2 67836 42.9990 241.7433 0001443 274.3749 160.8338 15.63788899 5454
UTC large
Height (km)
Speed (km/s)
/
Latitude / Longitude
Inclination (degrees)
Orbital Period (minutes)
Azimuth
Elevation
Range (km)
Doppler Factor

Next 0 passes for location: London (51.5072 / 0.1276)

Sorry there are no passes over London.